GFSMW_prec_cloud_177.txt.gz
Cloud_Cover
100 100 100 100 100 100 100 100 100 86 24 34 4 54 45 5 5 5 6 29 4 43 47 5 7 5 5 0 5 6 92 100 100 100 100 100 15 57 5 62 72 5 5
100 100 100 100 100 100 100 100 72 6 16 77 99 84 90 76 35 5 4 74 66 94 68 66 92 100 74 79 100 100 94 58 73 100 100 100 100 100 100 100 100 51 58
91 99 93 100 100 99 100 94 23 2 5 3 5 6 14 96 45 11 15 5 39 20 78 75 97 76 99 100 100 97 100 97 98 71 76 99 100 100 100 90 36 59 72
4 18 31 21 70 61 58 69 9 6 5 2 2 14 84 6 5 5 5 65 49 30 57 98 68 69 65 17 100 100 91 96 84 51 100 91 100 96 100 100 100 100 100
4 87 5 17 85 85 100 100 52 54 8 5 0 4 5 5 5 5 7 13 94 99 100 100 100 100 100 90 100 55 12 69 54 62 86 100 100 100 100 100 89 100 100
0 2 1 2 5 50 98 92 100 100 97 75 7 92 100 100 100 100 100 100 100 100 100 50 94 100 100 100 100 85 60 84 99 100 62 63 87 95 99 94 92 90 100
100 100 100 100 55 20 93 100 100 100 100 92 100 100 100 100 100 100 100 100 95 91 91 87 100 100 100 100 99 72 85 96 43 60 78 18 13 13 15 73 100 100 100
100 99 100 100 100 98 100 100 100 100 100 100 100 100 100 100 100 100 100 100 99 92 70 21 81 100 77 100 100 99 91 6 11 79 43 43 93 98 63 100 100 92 100
90 100 100 100 100 100 100 100 100 100 100 100 100 100 100 100 100 100 100 100 100 100 100 100 100 93 46 64 73 100 100 100 96 36 52 95 100 100 100 100 100 100 100
52 93 100 100 100 100 100 100 100 100 100 100 100 100 100 100 100 100 100 100 100 100 100 84 92 100 100 100 100 100 100 100 100 99 10 97 100 100 100 100 100 82 92
31 100 92 100 100 100 100 100 100 100 100 100 100 100 100 100 100 100 100 100 100 100 100 100 100 100 100 100 100 100 100 100 100 79 44 82 100 70 12 5 59 99 100
61 64 90 100 100 100 100 100 100 100 100 100 100 100 100 100 100 100 100 100 100 100 100 80 100 96 100 70 16 19 11 13 62 12 16 99 33 5 18 100 54 74 92
100 100 100 100 100 100 100 100 100 100 100 100 100 100 100 100 100 100 100 100 100 96 36 96 78 85 74 52 29 5 5 5 5 76 21 6 5 5 100 5 82 100 95
100 100 100 100 100 100 100 100 100 100 100 100 100 100 100 96 92 98 100 97 100 100 100 100 100 85 66 6 5 5 2 5 9 5 5 5 5 100 95 75 87 95 100
100 100 100 100 100 100 100 100 97 100 100 100 100 100 100 100 100 100 100 100 100 100 100 100 61 96 38 12 7 14 27 5 9 15 5 5 95 100 100 100 98 98 99
100 100 100 100 100 100 100 94 30 91 100 100 100 99 98 97 99 100 100 100 100 53 30 13 6 34 16 83 100 56 5 53 88 72 5 5 94 89 80 100 100 100 100
100 100 100 100 100 100 100 100 100 100 100 100 100 100 100 100 81 76 96 24 27 5 5 17 34 6 5 81 100 70 5 67 56 5 5 66 94 21 99 86 94 100 100
100 100 100 100 100 100 100 100 100 100 100 100 100 100 100 100 100 100 100 93 40 24 5 5 5 5 43 100 100 49 62 39 60 7 6 100 47 38 100 90 96 95 100
100 100 100 100 100 100 100 94 100 100 100 100 100 100 100 100 100 81 100 98 100 100 100 26 5 5 47 97 100 48 5 60 38 5 6 96 68 100 100 100 100 63 100
100 100 100 100 100 100 100 100 100 100 100 100 98 100 33 26 98 100 100 100 100 84 5 5 26 100 100 98 100 76 5 32 11 5 5 76 100 100 100 100 55 100 98
100 100 100 100 100 100 100 100 100 100 100 100 100 100 100 100 100 100 100 100 16 42 52 29 97 87 63 31 100 98 14 99 26 5 5 5 96 89 72 94 96 100 59
100 100 100 100 100 100 100 100 100 100 100 100 100 100 96 100 100 100 100 100 82 30 46 100 89 55 10 5 74 100 96 56 8 5 6 28 74 81 15 18 90 32 29
100 100 100 100 100 100 100 100 100 100 100 100 100 100 100 100 100 100 100 86 17 43 100 97 62 12 5 9 5 13 9 18 6 50 6 5 5 5 5 11 41 5 98
100 100 100 100 100 100 100 100 100 100 100 100 100 92 100 100 100 100 51 16 95 100 88 38 5 10 5 5 48 30 46 7 42 5 9 44 5 5 6 5 5 5 80
100 100 100 100 100 100 94 96 100 100 100 100 100 100 100 100 92 88 30 75 100 71 32 16 5 5 6 59 99 100 91 55 27 5 17 23 9 26 48 48 25 5 31
44 98 82 98 100 100 100 100 100 100 99 99 100 84 98 95 97 81 92 100 86 17 87 89 17 26 38 100 100 100 92 53 19 24 76 84 92 100 100 100 99 25 67

GFSMW_prec_cloud_183.txt.gz
Cloud_Cover
100 100 100 100 100 100 49 5 8 31 7 5 9 23 48 5 5 14 52 82 100 15 5 26 88 76 4 3 5 5 69 36 8 5 5 4 14 5 5 48 89 73 91
100 100 100 100 100 100 100 94 38 5 16 33 6 5 5 5 0 2 24 5 23 5 5 5 5 5 5 5 5 21 4 5 5 5 5 5 5 5 25 96 100 92 28
19 100 100 100 100 100 100 100 51 56 8 5 5 5 5 5 5 5 5 34 47 9 6 6 22 5 5 5 19 53 99 68 98 92 79 57 78 84 95 100 100 77 86
38 58 97 100 100 100 100 95 100 100 63 54 13 96 70 46 85 76 64 69 9 5 5 12 43 69 21 6 86 95 100 100 100 100 100 100 100 100 100 100 100 99 100
26 94 99 100 86 100 100 100 100 100 93 6 6 5 5 78 100 100 100 85 5 6 80 27 95 94 79 100 100 79 100 100 100 100 100 100 100 100 100 100 100 100 100
33 27 54 74 60 86 76 56 100 96 100 100 100 89 71 89 94 97 92 31 87 87 88 100 100 100 100 100 100 98 100 100 100 100 100 100 100 100 100 100 100 100 100
100 97 57 22 12 10 35 68 99 100 100 100 100 100 100 94 99 86 96 95 99 100 100 100 100 100 100 100 100 100 100 100 100 100 100 100 100 100 100 100 100 100 100
39 98 95 87 40 47 87 45 100 100 99 100 100 100 100 100 100 100 98 100 100 100 100 100 100 100 100 100 100 99 98 100 100 100 100 91 100 100 100 100 100 100 100
78 100 99 100 100 90 99 100 100 100 100 100 100 100 100 100 100 100 100 100 100 100 100 100 100 100 100 100 100 100 98 99 100 100 100 100 74 97 95 100 100 98 54
91 93 73 92 97 100 100 99 100 100 100 100 100 100 100 100 100 100 100 100 100 100 100 100 100 100 100 100 100 100 100 100 100 100 92 100 70 16 53 52 49 5 5
90 11 99 99 100 100 100 100 100 100 100 100 100 100 100 100 100 100 100 100 100 100 100 100 100 100 100 100 100 100 100 100 100 100 34 24 5 5 19 5 5 5 12
69 98 44 100 100 100 100 100 100 100 100 100 100 100 100 100 100 100 100 100 100 100 100 100 100 100 100 100 100 100 100 100 91 86 95 99 100 13 35 91 10 8 27
100 100 100 99 87 100 100 100 100 100 100 100 100 100 100 100 100 100 100 100 100 100 100 100 100 100 100 100 100 100 100 100 100 100 62 7 12 45 12 5 12 5 5
97 96 29 98 98 63 100 100 100 100 100 100 100 100 100 100 100 100 100 100 100 100 100 100 100 100 100 100 100 100 98 64 13 5 5 5 5 15 5 5 49 5 5
100 100 100 100 100 86 99 100 100 100 100 100 100 100 100 100 100 100 100 100 100 100 100 100 100 100 100 100 8 5 5 12 0 0 0 5 28 84 87 78 70 10 5
100 100 100 100 100 100 100 100 100 100 100 100 100 100 100 100 100 100 100 100 100 100 100 100 100 100 100 100 100 42 25 2 0 8 10 4 5 42 84 80 66 42 5
100 100 100 100 100 100 100 100 100 100 100 100 100 100 100 100 100 100 97 100 100 100 100 100 100 76 93 90 62 5 5 3 5 4 2 1 5 22 63 28 5 5 5
100 100 100 100 100 100 100 100 100 100 100 100 100 100 100 100 100 100 100 100 100 100 97 100 100 97 94 98 92 6 98 6 5 4 1 5 29 48 69 24 5 0 0
100 100 100 100 100 100 100 100 100 100 100 100 100 100 100 100 100 100 100 100 100 100 100 87 94 98 100 100 97 53 86 5 0 1 5 26 74 75 96 6 5 4 0
100 100 100 100 100 100 100 100 100 100 100 100 100 100 100 100 100 100 100 100 100 100 100 100 100 100 100 100 92 8 5 34 5 5 52 57 59 69 81 9 5 30 5
90 99 100 100 100 100 100 100 100 100 100 100 100 100 100 100 100 100 100 100 100 100 97 100 100 100 98 99 98 90 91 43 5 8 70 10 56 56 49 67 46 87 13
61 54 96 100 100 100 100 100 100 100 100 100 100 100 100 100 100 100 100 100 100 100 100 100 100 98 94 57 98 79 86 32 53 76 10 15 5 5 5 14 79 52 13
80 77 55 100 100 100 100 100 100 100 100 100 100 100 100 100 100 100 100 100 100 100 100 100 100 85 75 47 5 13 41 94 100 7 0 0 5 5 5 10 44 41 59
100 100 96 100 100 100 100 100 100 100 100 100 100 100 100 100 100 100 100 100 100 100 100 97 41 55 83 98 80 62 99 33 76 0 0 3 5 5 22 12 29 86 100
100 100 100 100 100 100 100 100 100 100 100 100 100 100 100 100 99 100 97 83 96 83 100 100 61 100 89 76 94 96 99 86 74 0 4 3 5 5 8 8 60 91 78
100 100 100 100 100 100 100 100 100 100 96 100 100 100 100 100 100 93 100 100 93 98 100 100 100 94 56 94 100 100 83 21 4 4 5 5 5 48 32 39 8 22 36

GFSMW_prec_cloud_186.txt.gz
Cloud_Cover
96 100 100 100 100 100 100 100 100 100 100 100 100 98 99 100 100 82 62 100 100 89 75 12 5 5 5 5 5 5 5 5 5 5 5 5 5 5 5 34 51 39 22
29 23 88 99 100 100 100 100 100 100 100 100 100 100 73 57 83 96 72 80 42 5 5 16 20 40 50 33 15 41 72 73 50 5 5 5 6 5 5 5 5 40 42
91 38 32 23 30 40 36 39 88 100 100 100 100 100 100 98 14 40 86 88 95 100 85 22 14 8 12 62 51 84 99 86 84 45 25 18 44 73 11 6 5 50 92
100 100 100 100 100 89 87 72 98 92 45 100 95 45 100 99 87 34 20 35 93 80 45 8 5 5 100 100 100 100 98 100 100 100 100 100 100 98 100 100 100 100 100
96 90 99 100 100 100 100 98 100 100 100 100 86 100 13 5 6 5 40 72 100 100 77 5 39 82 19 6 45 54 99 100 100 100 100 100 100 100 100 100 100 100 100
100 99 71 17 71 96 100 100 100 100 100 100 100 100 86 91 40 51 55 48 25 45 6 26 37 77 61 97 100 100 100 100 100 100 100 100 100 100 100 100 100 100 100
100 100 100 88 10 53 100 100 100 100 100 100 100 100 100 99 100 100 100 100 98 89 53 77 94 38 94 77 99 100 100 100 96 100 98 98 100 100 100 100 100 100 100
100 100 100 100 100 100 90 100 100 100 100 100 100 100 100 100 100 100 100 100 100 100 100 100 52 98 100 100 100 100 100 100 100 100 100 100 100 100 100 100 100 100 100
73 97 100 98 100 100 100 100 100 100 100 100 100 100 100 100 100 100 100 100 100 100 100 100 100 100 100 100 100 100 100 100 100 100 100 100 100 100 100 100 100 99 100
100 88 100 100 100 100 100 100 100 100 100 100 100 100 100 100 100 100 100 100 100 100 100 100 100 100 100 100 100 100 100 100 100 100 100 100 100 100 100 99 99 76 6
100 98 97 100 100 87 99 100 100 100 100 100 100 100 100 100 100 100 100 100 100 100 100 100 100 100 100 100 100 100 100 100 100 100 100 100 100 100 98 7 72 8 0
6 74 75 44 100 100 100 100 100 100 100 100 100 100 100 100 100 100 100 100 100 100 100 100 100 100 100 100 100 100 100 100 100 100 100 100 100 74 5 0 1 0 0
42 39 8 15 78 100 100 100 100 100 100 100 100 100 100 100 100 100 100 100 100 100 100 100 100 100 100 100 100 100 100 100 100 100 100 100 99 100 44 100 100 3 1
100 100 77 63 86 82 94 96 100 100 100 100 100 100 100 100 100 100 100 100 100 100 100 100 100 100 100 100 100 100 100 100 100 100 93 99 100 100 96 28 26 1 0
90 99 98 82 100 88 100 99 94 100 100 100 100 100 100 100 100 100 100 100 100 100 100 100 100 100 100 100 100 100 100 100 100 100 100 100 40 5 5 3 5 0 0
99 78 30 100 100 100 93 89 100 100 100 100 100 100 100 100 100 100 100 100 100 100 100 100 100 100 100 100 100 100 100 100 100 98 44 64 6 31 42 5 5 2 5
100 92 98 77 39 100 100 100 100 100 100 100 100 100 100 100 100 100 100 100 100 100 100 100 100 100 100 100 87 21 5 4 5 3 5 5 43 5 5 2 0 0 5
52 7 30 100 100 100 100 100 100 100 100 100 100 100 100 100 100 100 100 100 100 100 100 100 100 100 100 77 76 20 5 6 4 68 7 9 5 4 8 2 2 2 0
5 8 11 42 100 100 100 100 100 100 100 100 100 100 100 100 100 100 100 100 100 100 100 100 100 100 96 37 56 26 11 99 100 66 29 45 6 5 5 5 58 5 2
5 5 5 6 10 66 100 100 100 100 100 100 100 100 100 100 100 100 100 100 100 100 100 100 100 100 83 96 98 100 100 94 75 12 20 5 8 21 91 64 25 5 0
11 4 4 5 100 100 100 100 100 100 100 100 100 100 100 100 100 100 100 100 100 100 100 100 100 100 98 100 100 96 100 100 87 9 5 18 60 94 100 25 5 6 12
5 0 3 5 90 100 100 100 100 100 100 100 100 100 100 100 100 100 100 100 100 100 100 100 100 100 100 100 100 100 100 53 38 31 33 79 58 37 5 3 37 48 82
5 75 48 57 98 100 100 100 100 100 100 100 100 100 100 100 100 100 100 100 100 100 100 100 100 100 100 100 93 29 85 10 82 71 80 17 5 5 57 68 69 71 93
15 94 100 94 98 100 100 100 100 100 100 100 100 100 100 100 100 100 100 100 100 100 100 100 100 100 100 100 100 100 100 68 100 14 5 4 16 19 27 89 96 100 100
79 100 100 100 100 100 100 100 100 100 100 100 100 100 100 100 100 100 100 100 100 100 100 100 100 100 100 100 100 100 99 100 63 2 24 54 26 27 68 93 100 100 100
100 100 100 100 100 100 100 100 100 100 100 100 100 99 100 100 100 100 100 100 100 100 100 100 100 100 98 54 100 98 5 5 5 27 82 77 84 84 78 100 97 97 100

GFSMW_prec_cloud_192.txt.gz
Cloud_Cover
100 84 18 100 100 67 5 5 5 5 84 43 71 100 100 58 100 100 100 100 100 100 100 100 100 100 100 100 100 100 100 100 100 100 100 100 24 28 63 61 5 5 5
100 100 100 100 31 82 17 13 87 38 7 5 20 72 96 100 100 100 100 100 100 100 100 100 100 100 100 100 100 100 100 100 100 100 100 98 100 82 84 93 5 5 5
100 100 100 100 100 62 100 92 100 100 100 100 79 44 27 25 16 41 69 93 81 99 93 100 100 100 100 100 100 100 18 18 5 5 17 3 10 28 7 10 3 5 4
100 100 100 100 100 93 96 100 100 100 100 97 100 100 100 100 100 100 94 52 20 15 20 22 99 100 100 100 100 65 39 44 12 5 5 5 4 5 5 5 4 4 5
98 100 100 100 100 74 20 100 100 100 100 100 100 100 95 67 96 99 100 100 100 100 100 100 100 100 100 100 100 100 98 62 100 6 2 5 1 0 0 5 5 11 13
25 100 100 100 100 100 100 100 100 100 100 100 100 100 100 100 68 32 36 82 100 100 100 100 98 100 100 100 86 93 95 100 97 20 45 100 51 5 1 1 1 3 45
0 87 100 100 100 100 100 91 100 100 100 100 100 100 100 100 100 100 100 100 100 100 100 100 100 100 100 100 100 100 100 98 72 85 77 52 97 82 29 90 58 5 6
89 5 38 100 100 100 100 100 100 100 100 100 100 100 100 100 100 100 100 100 100 100 100 100 99 97 100 100 100 100 100 100 97 100 69 97 64 100 100 79 91 97 99
100 89 75 100 100 100 99 100 100 100 100 100 100 100 100 100 100 100 100 100 100 100 100 100 100 100 100 100 100 100 100 100 100 100 100 100 100 100 100 100 100 100 100
81 100 100 100 100 100 100 96 99 99 100 100 100 100 100 100 100 100 100 100 100 100 100 99 100 100 100 100 100 100 100 100 100 100 100 100 100 100 100 100 100 100 100
96 31 74 100 100 100 100 100 100 100 100 100 100 100 100 100 100 100 100 100 100 100 100 100 100 100 100 100 100 100 100 100 100 100 100 100 100 100 100 100 100 100 100
100 95 100 100 100 100 100 77 96 100 100 100 100 100 100 100 100 100 100 100 100 100 100 100 100 100 100 100 94 100 100 100 100 100 100 100 100 100 100 100 100 100 100
100 99 100 100 98 100 100 100 22 89 100 100 100 100 100 100 100 100 100 100 100 100 100 100 100 100 100 91 99 100 100 100 100 100 100 100 100 100 100 100 100 100 100
100 100 100 100 100 100 100 100 100 100 100 100 100 100 100 100 100 100 100 100 100 100 100 100 100 100 100 97 94 100 100 100 100 100 100 100 100 100 100 100 100 100 100
100 100 100 49 100 100 100 100 100 100 100 100 100 100 100 100 100 100 100 100 100 100 100 100 100 100 100 100 100 100 100 100 100 100 100 100 100 100 100 100 100 100 100
100 100 100 100 100 100 100 49 80 100 100 100 100 100 100 100 100 100 100 100 100 100 100 100 97 100 100 100 100 100 100 100 100 100 100 100 100 100 100 100 100 100 100
100 100 100 100 100 100 99 78 36 100 100 100 100 100 100 100 100 100 100 100 100 100 100 100 100 100 100 100 100 100 100 100 100 100 100 100 100 100 100 100 100 100 100
100 100 100 100 100 100 100 100 100 100 100 100 100 100 100 100 100 100 100 100 100 100 100 100 100 100 100 100 100 100 100 100 100 100 100 100 100 100 100 100 100 100 100
100 100 100 100 100 100 100 100 100 100 100 100 100 100 100 100 100 100 100 100 100 100 100 100 100 100 100 100 100 100 100 100 100 100 100 100 100 100 100 100 100 100 100
100 100 26 8 9 16 8 55 47 98 100 100 100 100 100 100 100 100 100 100 100 100 100 100 100 100 100 100 100 100 100 100 100 100 100 100 100 100 100 100 100 100 59
100 100 100 99 13 5 5 4 90 100 100 100 100 100 100 100 100 100 100 100 100 100 100 100 100 100 100 100 100 100 100 100 100 100 100 100 100 100 100 100 82 7 5
96 100 100 7 5 4 41 97 100 100 100 100 100 100 100 100 100 100 100 100 100 100 100 100 100 100 100 100 100 100 100 100 100 100 100 100 81 68 5 5 5 5 5
4 10 28 5 0 0 29 87 100 100 100 100 100 100 100 100 100 100 100 100 100 100 100 100 100 100 100 100 100 100 100 100 100 100 100 77 84 96 38 5 5 5 28
5 5 4 2 2 3 4 77 100 100 100 100 100 100 100 100 100 100 100 100 100 100 100 100 100 100 100 100 100 100 100 100 100 100 89 64 67 44 33 6 42 25 12
8 6 5 0 4 5 33 97 100 100 100 100 100 100 100 100 100 100 100 100 100 100 100 100 100 100 100 100 100 100 100 100 100 78 29 25 92 65 31 81 86 99 100
65 100 35 5 6 54 100 100 100 100 100 100 100 100 100 100 100 100 100 100 100 100 100 100 100 100 100 100 100 100 100 100 100 100 84 37 73 64 84 98 100 100 99

GFSMW_prec_cloud_195.txt.gz
Cloud_Cover
98 100 98 100 96 2 24 5 100 100 100 94 5 5 34 12 99 82 16 59 100 100 100 100 100 100 100 100 100 100 100 100 100 100 100 100 100 100 100 100 100 100 100
100 97 79 100 100 100 92 56 44 100 100 100 100 100 100 76 73 100 100 37 6 5 85 99 100 100 100 100 100 100 100 100 100 100 100 100 91 100 83 60 63 9 5
100 100 87 32 93 100 100 100 90 100 96 100 98 4 20 98 100 100 100 100 100 71 76 60 96 100 100 100 100 100 100 100 100 99 100 64 25 2 9 5 5 5 4
100 100 100 100 76 100 97 56 100 100 42 98 89 33 59 62 57 100 100 100 100 100 100 96 90 100 100 100 100 100 100 100 100 100 100 100 74 5 3 5 1 5 0
99 100 100 100 100 100 100 100 4 33 100 100 100 100 100 100 100 100 94 100 79 69 99 53 34 100 100 100 100 100 100 100 100 100 100 100 98 88 80 5 27 5 0
66 27 48 88 100 100 100 100 100 68 29 59 100 100 100 100 100 88 100 100 100 100 98 17 22 98 100 100 77 49 80 100 100 100 100 100 100 38 14 64 100 90 7
6 4 16 80 92 62 3 63 98 76 100 85 99 100 100 100 100 100 100 100 100 100 100 100 95 98 99 100 100 100 100 100 100 100 100 100 100 84 92 100 99 12 5
5 13 51 90 71 100 84 26 57 40 75 100 68 98 100 100 100 100 100 100 100 100 100 100 100 100 100 100 89 100 100 100 100 100 100 100 100 100 100 95 18 5 4
100 100 100 100 100 100 100 100 100 100 100 97 100 100 100 100 100 100 100 100 100 100 100 100 100 100 100 100 98 100 100 100 100 100 100 100 100 100 100 100 100 100 99
100 100 99 80 100 100 100 100 100 100 100 100 100 100 100 100 100 100 100 100 100 100 100 100 100 100 100 100 100 100 100 100 100 100 100 100 100 100 100 100 100 100 100
100 94 99 61 99 100 100 100 100 100 100 100 100 100 100 100 100 100 100 100 100 100 100 100 100 100 100 100 100 100 100 100 100 100 100 100 100 100 100 100 100 100 100
99 100 100 100 100 100 100 93 100 97 100 100 100 100 100 100 100 100 100 100 100 100 100 100 100 100 100 100 100 100 100 100 100 100 100 100 100 100 100 100 100 100 100
60 100 100 100 100 100 100 100 100 100 100 100 100 100 100 100 100 100 100 100 100 100 100 100 100 100 100 100 100 100 100 100 100 100 100 100 100 100 100 100 100 100 100
0 90 100 100 100 100 100 100 100 100 100 100 100 100 100 100 100 100 100 100 100 100 100 100 100 100 100 100 100 100 100 100 100 100 100 100 100 100 100 100 100 100 100
79 14 99 100 100 100 100 100 64 100 100 100 100 100 100 100 100 100 100 100 100 100 100 100 100 100 100 100 100 100 100 100 100 100 100 100 100 100 100 100 100 100 100
100 93 100 100 100 100 100 91 100 100 100 100 100 100 100 100 100 100 100 100 100 100 100 100 100 100 100 100 100 100 100 100 100 100 100 100 100 100 100 100 100 100 100
100 100 100 100 100 100 100 100 100 100 100 100 100 100 100 100 100 100 100 100 100 100 100 100 100 100 100 100 100 100 100 100 100 100 100 100 100 100 100 100 100 100 100
100 100 100 100 100 100 100 100 100 100 100 100 100 100 100 100 100 100 100 100 100 100 100 100 100 100 100 100 100 100 100 100 100 100 100 100 100 100 100 100 100 100 100
99 100 100 100 100 100 100 100 100 100 100 100 100 100 100 100 100 100 100 100 100 100 100 100 100 100 100 100 100 100 100 100 100 100 100 100 100 100 100 100 100 100 100
100 100 100 100 100 94 60 89 94 100 100 100 100 100 100 100 100 100 100 100 100 100 100 100 100 100 100 100 100 100 100 100 100 100 100 100 100 100 100 100 100 100 100
100 93 100 100 100 100 92 24 69 100 100 100 100 100 100 100 100 100 100 100 100 100 100 100 100 100 100 100 100 100 100 100 100 100 100 100 100 100 100 100 100 100 100
48 29 98 100 100 100 100 85 89 74 90 100 100 100 100 100 100 100 100 100 100 100 100 100 100 100 100 100 100 100 100 100 100 100 100 100 100 100 100 100 100 100 94
100 88 99 100 100 91 32 95 100 99 100 100 100 100 100 100 100 100 100 100 100 100 100 100 100 100 100 100 100 100 100 100 100 100 100 100 100 100 100 100 100 100 100
100 100 84 43 34 5 1 58 100 100 100 100 100 100 100 100 100 100 100 100 100 100 100 100 100 100 100 100 100 100 100 100 100 100 100 100 100 100 85 97 72 65 62
100 95 21 99 90 6 50 100 100 100 100 100 100 100 100 100 100 100 100 100 100 100 100 100 100 100 100 100 100 100 100 100 100 100 100 100 100 98 100 99 100 100 100
94 100 100 100 100 54 100 100 100 100 100 100 100 88 99 100 100 100 100 100 100 100 100 100 100 100 100 100 100 100 100 100 100 100 100 100 100 100 98 99 100 99 68